Location: Holyhead Bay
(53.3667°N, 4.6667°W)
Time: 03:47:31
(UTC+00:00)

TECHNOSAT - Visible Passes

Search period start: 15 June 2021 00:00
Search period end: 25 June 2021 00:00
Orbit: 583 x 604 km, 97.5° (Epoch: 14 June)

Date Brightness Start Highest point End Pass type
(mag) Time Alt. Az. Time Alt. Az. Time Alt. Az.
15 Jun ? 22:21:18 10° N 22:25:13 41° WNW 22:29:06 10° SW visible
16 Jun ? 22:30:37 10° N 22:34:23 34° WNW 22:38:07 10° SW visible
17 Jun ? 22:39:57 10° N 22:43:32 29° WNW 22:47:06 10° WSW visible
18 Jun ? 22:49:18 10° N 22:52:40 24° WNW 22:56:01 10° WSW visible
19 Jun ? 22:58:41 10° NNW 23:01:48 21° WNW 23:04:53 10° WSW visible
20 Jun ? 23:08:08 10° NNW 23:10:54 18° WNW 23:13:41 10° W visible
21 Jun ? 21:40:46 10° NNE 21:44:57 87° ESE 21:49:05 10° SSW visible
21 Jun ? 23:17:37 10° NNW 23:20:00 15° NW 23:22:23 10° W visible
22 Jun ? 21:49:59 10° NNE 21:54:09 77° WNW 21:58:17 10° SSW visible
22 Jun ? 23:27:13 10° NNW 23:29:06 13° NW 23:30:58 10° W visible
23 Jun ? 21:59:14 10° N 22:03:21 63° WNW 22:07:26 10° SSW visible
23 Jun ? 23:37:05 10° NW 23:38:11 11° NW 23:39:17 10° WNW visible
24 Jun ? 22:08:29 10° N 22:12:32 51° WNW 22:16:33 10° SW visible
